星链-5848 (STARLINK-5848 )

导读

STARLINK-5848是美国太空探索技术公司(SpaceX)星链互联网卫星星座的一员,于2023年3月17日发射升空,归属美国。星链项目旨在构建全球卫星互联网通信网络,该卫星入轨后承担为全球范围内用户提供低延迟、高速率宽带互联网接入服务的任务,助力SpaceX完成星座组网,拓展全球卫星互联网覆盖能力。

Basic Information
目录编号:
55932
目录名称:
STARLINK-5848
国际标识:
2023-037U
轨道中心:
EARTH
卫星名称:
星链-5848
卫星全名:
星链-5848 (STARLINK-5848 )
卫星状态:
在轨 (已飞行1268 天)
发射日期:
2023-03-17 UTC
国别 :
美国 (US)
星等 :
--
Orbit Information
数据来源 国际轨道数据
星历时间: 2026-09-05T02:40:57+0800
7小时前
查看轨道信息
半长轴: 6950.191km
偏心率: 0.0002983
轨道倾角: 70.000°
近地点辐角 267.975°
升交点赤经 172.720°
平近点角 92.107°
近地点: 569.98km
远地点: 574.128km
周期: 96.107分钟
每日圈数: 14.983307
Detailed Information
固有亮度:
5
最大亮度:
2.5
卫星平台:
Starlink v1.5
覆盖范围:
全球
运营商:
太空探索技术公司
运营商所在国:
美国
制造商(研发单位):
太空探索技术公司
制造商所在国:
美国
使用方式:
暂无
Satellite Introduction
星链(Starlink)计划是由太空探索技术公司(SpaceX)提出的一个巨型低轨卫星互联网星座项目,计划在2019年至2024年间在太空搭建由约1.2万颗卫星组成的“星链”网络,其中1584颗将部署在地球上空550千米处的近地轨道,并从2020年开始工作。该卫星仍在工作。
2D Orbit Map
3D Orbit Map
Orbit Altitude Analysis Chart
Orbit Inclination Analysis Chart
Orbit Comprehensive Analysis Chart
View Comprehensive Chart
Conjunction Data List
Event ID Objects TCA Miss Dist (km) Collision Risk Probability Collision Risk Index (CRI) Action
CDM_260907-043702-354605-593221
2026-09-07T
04:37:59+0000
2.538 km
极远距离
1.521337E-6 低风险 0.39
CDM_260905-164603-976905-593224
RISING 2 (39769)
2026-09-05T
16:46:51+0000
2.713 km
极远距离
1.509068E-6 低风险 0.39